UAE501 OMDB-VABB

Flight info

Callsign UAE501
Flight time 1h 22m
Altitude 39000
Route IVURO M677 LALDO B505 NADSO A777 VAXIM L301 KARKU M638 EXOLU POKON2A
Aircraft A388/J-SADE2E3FGHIJ3J4J5M1RWXY/LB1D1

Departure

Time 2026-04-25 17:08
Airport Dubai International Airport (OMDB)

Arrival

Time 2026-04-25 18:31
Airport Chhatrapati Shivaji Maharaj International Airport (VABB)
Time Latitude Longitude Altitude Speed Heading
2026-04-25 16:31 25.24220 55.37603 27 ft 0 kts 249°
2026-04-25 16:58 25.24222 55.37609 27 ft 2 kts 249°
2026-04-25 16:58 25.24227 55.37623 26 ft 2 kts 249°
2026-04-25 16:58 25.24232 55.37639 27 ft 2 kts 249°
2026-04-25 16:58 25.24238 55.37656 27 ft 2 kts 249°
2026-04-25 16:59 25.24244 55.37673 26 ft 2 kts 249°
2026-04-25 16:59 25.24249 55.37691 25 ft 2 kts 256°
2026-04-25 16:59 25.24252 55.37709 26 ft 2 kts 262°
2026-04-25 16:59 25.24253 55.37728 26 ft 2 kts 268°
2026-04-25 17:00 25.24252 55.37746 26 ft 2 kts 275°
2026-04-25 17:00 25.24248 55.37764 27 ft 2 kts 289°
2026-04-25 17:00 25.24240 55.37780 25 ft 2 kts 303°
2026-04-25 17:00 25.24234 55.37789 25 ft 0 kts 304°
2026-04-25 17:04 25.24234 55.37788 27 ft 0 kts 304°
2026-04-25 17:05 25.24240 55.37780 27 ft 8 kts 304°
2026-04-25 17:05 25.24340 55.37724 27 ft 12 kts 23°
2026-04-25 17:05 25.24447 55.37787 27 ft 16 kts 32°
2026-04-25 17:06 25.24549 55.37862 27 ft 10 kts 35°
2026-04-25 17:06 25.24614 55.37912 27 ft 15 kts 34°
2026-04-25 17:06 25.24667 55.37953 27 ft 9 kts 33°
2026-04-25 17:06 25.24721 55.37990 27 ft 9 kts 31°
2026-04-25 17:07 25.24771 55.38023 27 ft 5 kts 22°
2026-04-25 17:07 25.24797 55.38021 27 ft 5 kts 332°
2026-04-25 17:07 25.24814 55.38002 27 ft 4 kts 304°
2026-04-25 17:07 25.24815 55.38000 27 ft 0 kts 304°
2026-04-25 17:08 25.24896 55.37860 27 ft 62 kts 300°
2026-04-25 17:08 25.25258 55.37206 27 ft 132 kts 301°
2026-04-25 17:08 25.25820 55.36202 83 ft 168 kts 301°
2026-04-25 17:08 25.26408 55.35129 737 ft 158 kts 301°
2026-04-25 17:09 25.26978 55.34085 1292 ft 161 kts 302°
2026-04-25 17:09 25.27569 55.33032 1870 ft 164 kts 302°
2026-04-25 17:09 25.28203 55.31904 2242 ft 181 kts 303°
2026-04-25 17:09 25.28880 55.30693 2720 ft 187 kts 303°
2026-04-25 17:10 25.29763 55.29675 3214 ft 189 kts 333°
2026-04-25 17:10 25.31045 55.29429 3761 ft 194 kts
2026-04-25 17:10 25.32462 55.29522 4162 ft 213 kts
2026-04-25 17:10 25.33984 55.29611 4776 ft 228 kts
2026-04-25 17:11 25.35502 55.30340 5242 ft 253 kts 37°
2026-04-25 17:11 25.36638 55.31925 5632 ft 276 kts 64°
2026-04-25 17:11 25.37015 55.34043 6255 ft 288 kts 91°
2026-04-25 17:11 25.36667 55.36205 6960 ft 291 kts 103°
2026-04-25 17:12 25.36188 55.38390 7712 ft 294 kts 101°
2026-04-25 17:12 25.35837 55.40628 8524 ft 296 kts 97°
2026-04-25 17:12 25.35621 55.42904 9309 ft 299 kts 94°
2026-04-25 17:12 25.35489 55.45217 10057 ft 303 kts 93°
2026-04-25 17:13 25.35396 55.47582 10586 ft 314 kts 92°
2026-04-25 17:13 25.35339 55.49203 10890 ft 322 kts 92°
2026-04-25 17:13 25.35223 55.52581 11526 ft 335 kts 92°
2026-04-25 17:13 25.35130 55.55196 12018 ft 344 kts 93°
2026-04-25 17:14 25.35033 55.57873 12513 ft 353 kts 93°
2026-04-25 17:14 25.34932 55.60583 13004 ft 362 kts 93°
2026-04-25 17:14 25.34826 55.63396 13525 ft 370 kts 93°
2026-04-25 17:14 25.34718 55.66254 14123 ft 374 kts 93°
2026-04-25 17:15 25.34608 55.69149 14704 ft 378 kts 93°
2026-04-25 17:15 25.34497 55.72068 15271 ft 382 kts 94°
2026-04-25 17:15 25.34384 55.75022 15848 ft 386 kts 94°
2026-04-25 17:15 25.34270 55.78004 16419 ft 390 kts 94°
2026-04-25 17:16 25.34153 55.81020 16993 ft 394 kts 94°
2026-04-25 17:16 25.34034 55.84060 17539 ft 398 kts 94°
2026-04-25 17:16 25.33913 55.87134 18082 ft 402 kts 94°
2026-04-25 17:16 25.33791 55.90233 18562 ft 406 kts 94°
2026-04-25 17:17 25.33668 55.93367 19008 ft 410 kts 94°
2026-04-25 17:17 25.33542 55.96532 19448 ft 414 kts 94°
2026-04-25 17:17 25.33416 55.99722 19898 ft 418 kts 94°
2026-04-25 17:17 25.33287 56.02943 20347 ft 421 kts 94°
2026-04-25 17:18 25.33155 56.06195 20784 ft 425 kts 94°
2026-04-25 17:18 25.33023 56.09440 21204 ft 429 kts 93°
2026-04-25 17:18 25.32888 56.12746 21641 ft 432 kts 93°
2026-04-25 17:18 25.32751 56.16087 22079 ft 436 kts 94°
2026-04-25 17:19 25.32534 56.19441 22512 ft 439 kts 96°
2026-04-25 17:19 25.32234 56.22820 22943 ft 443 kts 97°
2026-04-25 17:19 25.31921 56.26214 23381 ft 446 kts 97°
2026-04-25 17:19 25.31612 56.29645 23745 ft 449 kts 96°
2026-04-25 17:20 25.31317 56.33044 24171 ft 451 kts 96°
2026-04-25 17:20 25.31023 56.36504 24543 ft 453 kts 96°
2026-04-25 17:20 25.30750 56.39982 24921 ft 456 kts 93°
2026-04-25 17:20 25.30651 56.43491 25296 ft 458 kts 92°
2026-04-25 17:21 25.30554 56.47019 25684 ft 461 kts 92°
2026-04-25 17:21 25.30452 56.50564 26091 ft 463 kts 92°
2026-04-25 17:21 25.30345 56.54140 26517 ft 466 kts 92°
2026-04-25 17:21 25.30114 56.57715 26944 ft 468 kts 99°
2026-04-25 17:22 25.29470 56.61245 27408 ft 469 kts 107°
2026-04-25 17:22 25.28818 56.63530 27716 ft 470 kts 112°
2026-04-25 17:22 25.27131 56.68009 28332 ft 474 kts 115°
2026-04-25 17:22 25.25848 56.71376 28813 ft 477 kts 115°
2026-04-25 17:23 25.24568 56.74762 29299 ft 480 kts 114°
2026-04-25 17:23 25.23277 56.78176 29776 ft 483 kts 114°
2026-04-25 17:23 25.21970 56.81625 30224 ft 487 kts 115°
2026-04-25 17:23 25.20656 56.85086 30617 ft 491 kts 115°
2026-04-25 17:24 25.19329 56.88578 30984 ft 495 kts 115°
2026-04-25 17:24 25.18008 56.92049 31362 ft 499 kts 115°
2026-04-25 17:24 25.16654 56.95604 31746 ft 503 kts 115°
2026-04-25 17:24 25.15288 56.99188 32112 ft 507 kts 114°
2026-04-25 17:25 25.13917 57.02782 32476 ft 511 kts 114°
2026-04-25 17:25 25.12530 57.06414 32843 ft 515 kts 114°
2026-04-25 17:25 25.11129 57.10080 33201 ft 519 kts 114°
2026-04-25 17:25 25.09736 57.13721 33561 ft 523 kts 114°
2026-04-25 17:26 25.08315 57.17434 33913 ft 527 kts 114°
2026-04-25 17:26 25.06880 57.21178 34223 ft 531 kts 114°
2026-04-25 17:26 25.05437 57.24941 34586 ft 534 kts 114°
2026-04-25 17:26 25.03988 57.28717 35034 ft 534 kts 114°
2026-04-25 17:27 25.02539 57.32488 35488 ft 534 kts 114°
2026-04-25 17:27 25.01089 57.36260 35961 ft 534 kts 113°
2026-04-25 17:27 24.99638 57.40031 36398 ft 534 kts 113°
2026-04-25 17:27 24.99145 57.41312 36536 ft 534 kts 113°
2026-04-25 17:28 24.96729 57.47579 37279 ft 535 kts 113°
2026-04-25 17:28 24.95273 57.51351 37717 ft 535 kts 112°
2026-04-25 17:28 24.93815 57.55127 38157 ft 535 kts 112°
2026-04-25 17:28 24.92356 57.58900 38588 ft 535 kts 112°
2026-04-25 17:29 24.90897 57.62673 38859 ft 537 kts 112°
2026-04-25 17:29 24.89447 57.66417 38884 ft 537 kts 112°
2026-04-25 17:29 24.86523 57.73955 38886 ft 535 kts 112°
2026-04-25 17:30 24.83597 57.81487 38885 ft 535 kts 112°
2026-04-25 17:30 24.80495 57.88937 38880 ft 535 kts 115°
2026-04-25 17:31 24.77210 57.96298 38888 ft 534 kts 115°
2026-04-25 17:31 24.73990 58.03602 38892 ft 534 kts 115°
2026-04-25 17:32 24.70766 58.10963 38884 ft 533 kts 115°
2026-04-25 17:32 24.67549 58.18303 38888 ft 533 kts 115°
2026-04-25 17:33 24.64325 58.25643 38886 ft 532 kts 115°
2026-04-25 17:33 24.61101 58.32973 38882 ft 532 kts 115°
2026-04-25 17:34 24.57882 58.40279 38884 ft 531 kts 115°
2026-04-25 17:34 24.54659 58.47583 38890 ft 531 kts 115°
2026-04-25 17:35 24.51462 58.54816 38887 ft 530 kts 115°
2026-04-25 17:35 24.48237 58.62102 38890 ft 529 kts 115°
2026-04-25 17:36 24.45015 58.69368 38889 ft 529 kts 115°
2026-04-25 17:36 24.41794 58.76621 38888 ft 528 kts 115°
2026-04-25 17:37 24.38572 58.83870 38884 ft 528 kts 115°
2026-04-25 17:37 24.35372 58.91063 38883 ft 527 kts 115°
2026-04-25 17:38 24.33221 58.95889 38884 ft 526 kts 115°
2026-04-25 17:38 24.28939 59.05485 38887 ft 526 kts 115°
2026-04-25 17:39 24.25720 59.12684 38889 ft 525 kts 115°
2026-04-25 17:39 24.22502 59.19870 38887 ft 524 kts 115°
2026-04-25 17:40 24.19290 59.27031 38892 ft 523 kts 115°
2026-04-25 17:40 24.16096 59.34142 38889 ft 523 kts 115°
2026-04-25 17:41 24.12885 59.41280 38893 ft 522 kts 115°
2026-04-25 17:41 24.09676 59.48401 38895 ft 521 kts 115°
2026-04-25 17:42 24.07010 59.54308 38894 ft 520 kts 115°
2026-04-25 17:42 24.03867 59.61411 38860 ft 517 kts 113°
2026-04-25 17:43 23.96247 59.78100 38884 ft 515 kts 115°
2026-04-25 17:43 23.83500 60.06099 38893 ft 512 kts 115°
2026-04-25 17:44 23.70766 60.33915 38898 ft 510 kts 116°
2026-04-25 17:44 23.58138 60.61338 38891 ft 508 kts 116°
2026-04-25 17:45 23.47486 60.84350 38886 ft 507 kts 116°
2026-04-25 17:45 23.32958 61.16352 38891 ft 506 kts 108°
2026-04-25 17:46 23.30532 61.31326 38889 ft 504 kts 94°
2026-04-25 17:46 23.29175 61.46487 38892 ft 503 kts 94°
2026-04-25 17:46 23.26432 61.76826 38890 ft 503 kts 95°
2026-04-25 17:47 23.23652 62.06920 38889 ft 503 kts 95°
2026-04-25 17:47 23.20798 62.37187 38889 ft 503 kts 95°
2026-04-25 17:48 23.16408 62.82558 38885 ft 501 kts 95°
2026-04-25 17:49 23.13441 63.12471 38884 ft 500 kts 95°
2026-04-25 17:49 23.10396 63.42581 38884 ft 500 kts 95°
2026-04-25 17:50 23.07299 63.72630 38888 ft 500 kts 95°
2026-04-25 17:50 23.00167 64.01648 38883 ft 501 kts 111°
2026-04-25 17:51 22.89630 64.29590 38886 ft 500 kts 111°
2026-04-25 17:51 22.79093 64.57294 38892 ft 499 kts 111°
2026-04-25 17:52 22.68455 64.85094 38890 ft 499 kts 111°
2026-04-25 17:52 22.57788 65.12801 38889 ft 498 kts 111°
2026-04-25 17:53 22.47069 65.40476 38889 ft 498 kts 111°
2026-04-25 17:53 22.36317 65.68074 38889 ft 499 kts 111°
2026-04-25 17:54 22.25489 65.95702 38889 ft 499 kts 112°
2026-04-25 17:54 22.14609 66.23302 38895 ft 500 kts 112°
2026-04-25 17:55 22.03668 66.50903 38897 ft 500 kts 112°
2026-04-25 17:55 21.92682 66.78453 38893 ft 500 kts 112°
2026-04-25 17:56 21.81710 67.05818 38892 ft 501 kts 113°
2026-04-25 17:56 21.70618 67.33329 38897 ft 500 kts 113°
2026-04-25 17:57 21.59494 67.60762 38900 ft 499 kts 113°
2026-04-25 17:57 21.48364 67.88058 38900 ft 498 kts 114°
2026-04-25 17:58 21.37285 68.15084 38898 ft 496 kts 114°
2026-04-25 17:58 21.26116 68.42179 38893 ft 495 kts 115°
2026-04-25 17:59 21.14937 68.69154 38882 ft 495 kts 115°
2026-04-25 17:59 21.03669 68.96197 38890 ft 498 kts 115°
2026-04-25 18:00 20.93647 69.23687 38888 ft 501 kts 109°
2026-04-25 18:00 20.85064 69.52052 38887 ft 502 kts 109°
2026-04-25 18:01 20.76411 69.80460 38876 ft 502 kts 110°
2026-04-25 18:01 20.67725 70.08792 38873 ft 502 kts 110°
2026-04-25 18:02 20.58953 70.37217 38870 ft 503 kts 110°
2026-04-25 18:02 20.50139 70.65596 38860 ft 503 kts 110°
2026-04-25 18:03 20.41352 70.93713 38853 ft 503 kts 111°
2026-04-25 18:03 20.33469 71.18785 38846 ft 503 kts 111°
2026-04-25 18:04 20.31239 71.25850 38843 ft 503 kts 111°
2026-04-25 18:04 20.29007 71.32916 38650 ft 499 kts 111°
2026-04-25 18:04 20.27905 71.36402 38199 ft 494 kts 111°
2026-04-25 18:05 20.26828 71.39805 37678 ft 489 kts 111°
2026-04-25 18:05 20.25730 71.43268 37144 ft 485 kts 111°
2026-04-25 18:05 20.24668 71.46614 36658 ft 482 kts 111°
2026-04-25 18:05 20.23596 71.49991 36151 ft 478 kts 111°
2026-04-25 18:06 20.22496 71.53324 35668 ft 473 kts 115°
2026-04-25 18:06 20.21057 71.56451 35192 ft 469 kts 123°
2026-04-25 18:06 20.19238 71.59320 34731 ft 468 kts 131°
2026-04-25 18:06 20.17083 71.61918 34278 ft 470 kts 136°
2026-04-25 18:07 20.14836 71.64474 33817 ft 472 kts 135°
2026-04-25 18:07 20.12640 71.67004 33304 ft 469 kts 135°
2026-04-25 18:07 20.10433 71.69551 32791 ft 465 kts 135°
2026-04-25 18:07 20.08247 71.72073 32293 ft 463 kts 135°
2026-04-25 18:08 20.06066 71.74584 31820 ft 462 kts 134°
2026-04-25 18:08 20.03894 71.77083 31322 ft 458 kts 134°
2026-04-25 18:08 20.01739 71.79562 30847 ft 453 kts 134°
2026-04-25 18:08 19.99614 71.82004 30377 ft 448 kts 134°
2026-04-25 18:09 19.97506 71.84423 29932 ft 444 kts 133°
2026-04-25 18:09 19.95418 71.86819 29390 ft 439 kts 133°
2026-04-25 18:09 19.93356 71.89188 28853 ft 435 kts 133°
2026-04-25 18:09 19.92686 71.89957 28687 ft 434 kts 134°
2026-04-25 18:10 19.89303 71.93840 27830 ft 427 kts 134°
2026-04-25 18:10 19.87296 71.96141 27327 ft 423 kts 134°
2026-04-25 18:10 19.85305 71.98422 26838 ft 419 kts 134°
2026-04-25 18:10 19.83324 72.00691 26356 ft 416 kts 134°
2026-04-25 18:11 19.81363 72.02935 25874 ft 412 kts 134°
2026-04-25 18:11 19.79419 72.05159 25402 ft 409 kts 134°
2026-04-25 18:11 19.77487 72.07362 24952 ft 405 kts 135°
2026-04-25 18:11 19.75434 72.09392 24488 ft 401 kts 139°
2026-04-25 18:12 19.73380 72.11326 24051 ft 398 kts 139°
2026-04-25 18:12 19.71320 72.13282 23611 ft 395 kts 138°
2026-04-25 18:12 19.69276 72.15226 23130 ft 393 kts 137°
2026-04-25 18:12 19.67250 72.17154 22611 ft 390 kts 137°
2026-04-25 18:13 19.65238 72.19068 22105 ft 387 kts 137°
2026-04-25 18:13 19.63240 72.20967 21605 ft 384 kts 137°
2026-04-25 18:13 19.61254 72.22852 21103 ft 381 kts 137°
2026-04-25 18:14 19.57353 72.26554 20150 ft 376 kts 137°
2026-04-25 18:14 19.55412 72.28394 19683 ft 373 kts 137°
2026-04-25 18:14 19.53492 72.30214 19276 ft 368 kts 137°
2026-04-25 18:14 19.51589 72.32018 18865 ft 364 kts 137°
2026-04-25 18:15 19.49708 72.33800 18460 ft 360 kts 137°
2026-04-25 18:15 19.47844 72.35565 18045 ft 357 kts 137°
2026-04-25 18:15 19.46001 72.37310 17585 ft 353 kts 137°
2026-04-25 18:15 19.44174 72.39040 17119 ft 350 kts 137°
2026-04-25 18:16 19.42362 72.40755 16678 ft 347 kts 137°
2026-04-25 18:16 19.40589 72.42431 16249 ft 344 kts 137°
2026-04-25 18:16 19.37037 72.45789 15375 ft 338 kts 137°
2026-04-25 18:17 19.35286 72.47443 14951 ft 335 kts 137°
2026-04-25 18:17 19.33550 72.49083 14531 ft 332 kts 137°
2026-04-25 18:17 19.31851 72.50688 14113 ft 330 kts 137°
2026-04-25 18:17 19.30143 72.52300 13744 ft 327 kts 137°
2026-04-25 18:18 19.28450 72.53899 13369 ft 324 kts 137°
2026-04-25 18:18 19.26767 72.55487 13000 ft 323 kts 137°
2026-04-25 18:18 19.25089 72.57071 12619 ft 322 kts 137°
2026-04-25 18:18 19.23417 72.58650 12255 ft 321 kts 136°
2026-04-25 18:19 19.22058 72.60519 11885 ft 321 kts 116°
2026-04-25 18:19 19.21500 72.62761 11535 ft 320 kts 94°
2026-04-25 18:19 19.21516 72.65104 11185 ft 317 kts 90°
2026-04-25 18:19 19.21535 72.67414 10920 ft 309 kts 90°
2026-04-25 18:20 19.21535 72.69649 10846 ft 299 kts 91°
2026-04-25 18:20 19.21525 72.71831 10851 ft 296 kts 91°
2026-04-25 18:20 19.21512 72.74014 10850 ft 297 kts 91°
2026-04-25 18:20 19.21498 72.76200 10790 ft 297 kts 91°
2026-04-25 18:21 19.21483 72.78372 10562 ft 292 kts 91°
2026-04-25 18:21 19.21470 72.80503 10329 ft 286 kts 91°
2026-04-25 18:21 19.21456 72.82591 10104 ft 281 kts 91°
2026-04-25 18:21 19.21439 72.84648 9874 ft 278 kts 91°
2026-04-25 18:22 19.21428 72.86650 9639 ft 274 kts 91°
2026-04-25 18:22 19.21425 72.87328 9571 ft 273 kts 91°
2026-04-25 18:22 19.21406 72.90650 9134 ft 270 kts 91°
2026-04-25 18:22 19.21391 72.92633 8897 ft 269 kts 91°
2026-04-25 18:23 19.21376 72.94609 8648 ft 268 kts 91°
2026-04-25 18:23 19.21360 72.96594 8403 ft 269 kts 91°
2026-04-25 18:23 19.21342 72.98569 8163 ft 268 kts 91°
2026-04-25 18:23 19.21326 73.00535 7923 ft 266 kts 91°
2026-04-25 18:24 19.21311 73.02457 7686 ft 263 kts 90°
2026-04-25 18:24 19.21292 73.04380 7450 ft 259 kts 91°
2026-04-25 18:24 19.21262 73.06287 7216 ft 257 kts 91°
2026-04-25 18:24 19.21228 73.08147 6988 ft 255 kts 91°
2026-04-25 18:25 19.21189 73.10027 6755 ft 255 kts 91°
2026-04-25 18:25 19.21149 73.11895 6530 ft 254 kts 91°
2026-04-25 18:25 19.20772 73.13706 6290 ft 255 kts 117°
2026-04-25 18:25 19.19626 73.15114 6060 ft 254 kts 146°
2026-04-25 18:26 19.17992 73.15762 5819 ft 251 kts 176°
2026-04-25 18:26 19.16293 73.15492 5594 ft 248 kts 205°
2026-04-25 18:26 19.14902 73.14435 5362 ft 247 kts 226°
2026-04-25 18:26 19.13779 73.13064 5125 ft 247 kts 233°
2026-04-25 18:27 19.12738 73.11623 4893 ft 246 kts 234°
2026-04-25 18:27 19.11689 73.10178 4652 ft 248 kts 233°
2026-04-25 18:27 19.10624 73.08749 4399 ft 246 kts 233°
2026-04-25 18:27 19.09584 73.07315 4113 ft 246 kts 242°
2026-04-25 18:28 19.09092 73.05599 3805 ft 245 kts 267°
2026-04-25 18:28 19.09056 73.03821 3534 ft 246 kts 272°
2026-04-25 18:28 19.09067 73.01995 3235 ft 251 kts 272°
2026-04-25 18:29 19.09031 72.98285 2534 ft 246 kts 272°
2026-04-25 18:29 19.09004 72.96499 2188 ft 238 kts 272°
2026-04-25 18:30 19.08942 72.91757 1256 ft 191 kts 272°
2026-04-25 18:30 19.08918 72.90417 948 ft 170 kts 272°
2026-04-25 18:30 19.08905 72.89218 601 ft 157 kts 270°
2026-04-25 18:30 19.08884 72.88095 217 ft 149 kts 269°
2026-04-25 18:31 19.08873 72.87023 51 ft 134 kts 269°
2026-04-25 18:31 19.08864 72.86216 52 ft 81 kts 269°
2026-04-25 18:31 19.08857 72.85807 54 ft 34 kts 270°
2026-04-25 18:31 19.08894 72.85622 53 ft 20 kts 291°
2026-04-25 18:32 19.08924 72.85550 50 ft 12 kts 294°
2026-04-25 18:32 19.08979 72.85486 49 ft 7 kts 357°
2026-04-25 18:32 19.09006 72.85496 50 ft 1 kts 40°
2026-04-25 18:32 19.09025 72.85535 49 ft 9 kts 80°
2026-04-25 18:33 19.09027 72.85613 54 ft 15 kts 89°
2026-04-25 18:33 19.09029 72.85702 54 ft 18 kts 87°
2026-04-25 18:33 19.09029 72.85818 54 ft 15 kts 90°
2026-04-25 18:33 19.09031 72.85965 54 ft 25 kts 89°
2026-04-25 18:34 19.09034 72.86129 53 ft 18 kts 88°
2026-04-25 18:34 19.09037 72.86261 54 ft 15 kts 90°
2026-04-25 18:34 19.09056 72.86333 50 ft 11 kts 50°
2026-04-25 18:34 19.09116 72.86406 49 ft 15 kts 48°
2026-04-25 18:35 19.09190 72.86491 48 ft 15 kts 47°
2026-04-25 18:35 19.09262 72.86577 49 ft 17 kts 49°
2026-04-25 18:35 19.09337 72.86666 50 ft 14 kts 50°
2026-04-25 18:35 19.09397 72.86738 47 ft 10 kts 48°
2026-04-25 18:36 19.09422 72.86782 50 ft 9 kts 79°
2026-04-25 18:36 19.09416 72.86854 49 ft 10 kts 102°
2026-04-25 18:36 19.09401 72.86926 49 ft 9 kts 109°
2026-04-25 18:36 19.09392 72.86955 54 ft 2 kts 104°
2026-04-25 18:37 19.09388 72.86973 51 ft 2 kts 102°
2026-04-25 18:37 19.09386 72.86983 51 ft 0 kts 104°